Tracking 25711 objects as of 22-May-2022
HD Live streaming from Space Station
objects crossing your sky now

COSMOS 400

Track COSMOS 400 now!
10-day predictions
COSMOS 400 is classified as:


NORAD ID: 5050
Int'l Code: 1971-020A
Perigee: 992.7 km
Apogee: 1,005.3 km
Inclination: 65.8 °
Period: 104.9 minutes
Semi major axis: 7369 km
RCS: 1.4626 m2 (large)
Launch date: March 18, 1971
Source: Commonwealth of Independent States (former USSR) (CIS)
Launch site: PLESETSK MISSILE AND SPACE COMPLEX (PKMTR)
aabbcc
Your satellite tracking list
Your tracking list is empty




NASA's NSSDC Master Catalog

Two Line Element Set (TLE):
1 05050U 71020A   22141.72613505 -.00000043  00000-0  41051-4 0  9992
2 05050  65.8253 250.9097 0008547 230.5462 237.8351 13.72150191563866
Source of the keplerian elements: AFSPC